Location: Archemont
(49.1579°N, 1.7598°E)
Time: 12:23:33
(UTC+00:00)

Cosmos 841 Rocket - Pass Details

Date: 03 February 2023
Orbit: 746 x 771 km, 74.0° (Epoch: 25 March)

Event Time Altitude Azimuth Distance (km) Brightness Sun altitude
Rises 18:28:37 0° 338° (NNW) 3,258 7.0 -15.9°
Reaches altitude 10° 18:31:02 10° 341° (NNW) 2,327 6.1 -16.3°
Maximum altitude 18:36:17 65° 64° (ENE) 848 3.4 -17.1°
Drops below altitude 10° 18:41:30 10° 146° (SE) 2,303 5.7 -18.0°
Enters shadow 18:42:12 - 147° (SSE) 2,576 6.0 -18.1°
